Location: Caltech
(34.1382°N, 118.1253°W)
Time: 16:09:28
(UTC-07:00)

RS-15 - Visible Passes

Search period start: 29 June 2015 00:00
Search period end: 09 July 2015 00:00
Orbit: 1893 x 2152 km, 64.8° (Epoch: 25 June)

Date Brightness Start Highest point End Pass type
(mag) Time Alt. Az. Time Alt. Az. Time Alt. Az.
29 Jun 9.6 01:10:31 10° ESE 01:13:21 12° E 01:17:25 10° ENE visible
29 Jun 8.0 03:18:02 31° SSW 03:24:12 74° ESE 03:35:18 10° NNE visible
30 Jun 8.2 02:43:27 34° S 02:48:20 56° ESE 02:59:04 10° NE visible
30 Jun 8.7 04:51:12 10° WSW 05:01:10 39° NW 05:11:21 10° NNE visible
01 Jul 8.5 02:08:49 32° SSE 02:12:32 41° ESE 02:22:39 10° NE visible
01 Jul 8.3 04:16:34 18° WSW 04:24:43 50° NW 04:35:29 10° NNE visible
02 Jul 8.8 01:34:08 26° SE 01:36:47 30° ESE 01:45:56 10° NE visible
02 Jul 8.0 03:41:54 28° SW 03:48:28 65° NW 03:59:33 10° NNE visible
03 Jul 9.1 00:59:27 19° ESE 01:01:06 20° ESE 01:08:44 10° ENE visible
03 Jul 7.9 03:07:12 38° SW 03:12:20 83° WNW 03:23:34 10° NNE visible
03 Jul 9.3 05:18:26 10° W 05:26:52 23° NW 05:35:09 10° NNE visible
04 Jul 9.5 00:24:43 13° ESE 00:25:27 13° E 00:30:15 10° ENE visible
04 Jul 7.9 02:32:28 47° S 02:36:20 77° ESE 02:47:29 10° NNE visible
04 Jul 9.0 04:40:44 10° W 04:50:02 29° NW 04:59:20 10° NNE visible
05 Jul 8.0 01:57:42 48° SSE 02:00:27 59° ESE 02:11:17 10° NE visible
05 Jul 8.7 04:05:27 16° WSW 04:13:24 37° NW 04:23:29 10° NNE visible
06 Jul 8.3 01:22:55 41° SE 01:24:38 43° ESE 01:34:52 10° NE visible
06 Jul 8.4 03:30:39 26° WSW 03:36:56 48° NW 03:47:37 10° NNE visible
07 Jul 8.7 00:48:04 31° ESE 00:48:53 31° ESE 00:58:13 10° NE visible
07 Jul 8.1 02:55:49 37° WSW 03:00:38 62° NW 03:11:42 10° NNE visible
07 Jul 9.5 05:08:58 10° WNW 05:16:10 18° NNW 05:23:06 10° NNE visible
08 Jul 9.0 00:13:13 22° ESE 00:13:13 22° ESE 00:21:06 10° ENE visible
08 Jul 7.8 02:20:57 51° SW 02:24:29 80° WNW 02:35:44 10° NNE visible
08 Jul 9.4 04:30:51 10° W 04:39:09 23° NNW 04:47:16 10° NNE visible
08 Jul 9.4 23:38:19 14° E 23:38:19 14° E 23:42:57 10° ENE visible
